Skip Page Navigation
NASA JPL Caltech
NASA Logo - Jet Propulsion Laboratory + View the NASA Portal
+ Near-Earth Object (NEO) Program
Search JPL
JPL Home Earth Solar System Stars & Galaxies Technology
JPL Solar System Dynamics
BODIES ORBITS EPHEMERIDES TOOLS PHYSICAL DATA DISCOVERY FAQ SITE MAP
JPL Small-Body Database Browser
Search: [ help ]  
(2009 KN4)
Classification: Apollo [NEO, PHA]          SPK-ID: 3461228
Ephemeris | Orbit Diagram | Orbital Elements | Physical Parameters | Close-Approach Data ]

[ hide orbit diagram ]
Orbit Diagram
Note: Make sure you have Java enabled on your browser to see the applet. This applet is provided as a 3D orbit visualization tool. The applet was implemented using 2-body methods, and hence should not be used for determining accurate long-term trajectories (over several years or decades) or planetary encounter circumstances. For accurate long-term ephemerides, please instead use our Horizons system.
Orbit Viewer

Additional Notes: the orbits shown in the applet are color coded. The planets are white lines, and the asteroid/comet is a blue line. The bright white line indicates the portion of the orbit that is above the ecliptic plane, and the darker portion is below the ecliptic plane. Likewise for the asteroid/comet orbit, the light blue indicates the portion above the ecliptic plane, and the dark blue the portion below the ecliptic plane.

Orbit Viewer applet originally written and kindly provided by Osamu Ajiki (AstroArts), and further modified by Ron Baalke (JPL).


Orbital Elements at Epoch 2456400.5 (2013-Apr-18.0) TDB
Reference: JPL 23 (heliocentric ecliptic J2000)
 Element Value Uncertainty (1-sigma)   Units 
e .5250876336138783 8.8262e-08  
a 1.940059173867495 5.2703e-08 AU
q .9213580931905165 1.735e-07 AU
i 9.166663326230355 2.2975e-05 deg
node 308.4074518059996 7.2287e-05 deg
peri 38.03963444958496 7.3302e-05 deg
M 128.6846394826551 2.0252e-05 deg
tp 2456047.686575879854
(2012-Apr-30.18657588)
4.2649e-05 JED
period 987.0084976254842
2.70
4.0219e-05
1.101e-07
d
yr
n .364738501103159 1.4862e-08 deg/d
Q 2.958760254544475 8.0376e-08 AU
  Orbit Determination Parameters
   # obs. used (total)      86  
   data-arc span      4065 days (11.13 yr)  
   first obs. used      2001-12-18  
   last obs. used      2013-02-03  
   planetary ephem.      DE405  
   SB-pert. ephem.      SB405-CPV-2  
   condition code      0  
   fit RMS      .55093  
   data source      ORB  
   producer      Otto Matic  
   solution date      2013-Feb-04 00:51:37  

Additional Information
 Earth MOID = .0117687 AU 
 T_jup = 3.708 
[ show covariance matrix ]

Ephemeris | Orbit Diagram | Orbital Elements | Physical Parameters | Close-Approach Data ]

Physical Parameter Table
Parameter Symbol Value Units Sigma Reference Notes
absolute magnitude H 18.236 mag .39906 23 autocmod 2.5b

[ show close-approach data ]
Ephemeris | Orbit Diagram | Orbital Elements | Physical Parameters | Close-Approach Data ]
ABOUT SSD CREDITS/AWARDS PRIVACY/COPYRIGHT GLOSSARY LINKS
FirstGov 2013-May-25 10:45 UT
(server date/time)  
NASA Home Page
Site Manager:   Donald K. Yeomans
Webmaster  Alan B. Chamberlin